Weather History for KISW - September, 2013

Change the Weather History Date:

Monday, September 16, 2013

  Actual Average Record
Temperature  
Mean Temperature 50 °F -  
Max Temperature 64 °F 68 °F 99 °F (1948)
Min Temperature 37 °F 45 °F 32 °F (1964)
Degree Days  
Heating Degree Days 14    
Moisture  
Dew Point 39 °F    
Average Humidity 67    
Maximum Humidity 97    
Minimum Humidity 35    
Precipitation  
Precipitation 0.00 in - - ()
Sea Level Pressure  
Sea Level Pressure 30.39 in    
Wind  
Wind Speed 5 mph (East)    
Max Wind Speed 8 mph    
Max Gust Speed -    
Visibility 10 miles    
Events      
Averages and records for this station are not official NWS values.
T = Trace of Precipitation, MM = Missing Value Source: NWS Daily Summary

Daily Weather History Graph

Daily Weather History Graph

Search for Another Location

Airport or City:

Trip Planner

Search our weather history database for the weather conditions in past years. The results will help you decide how hot, cold, wet, or windy it might be!

Date:

Astronomy

Sep. 16, 2013 Rise Set
Actual Time 6:39 AM CDT 7:07 PM CDT
Civil Twilight 6:10 AM CDT 7:36 PM CDT
Nautical Twilight 5:36 AM CDT 8:10 PM CDT
Astronomical Twilight 5:00 AM CDT 8:46 PM CDT
Moon 5:20 PM CDT (9/16) 3:20 AM CDT (9/16)
Length of Visible Light 13h 25m
Length of Day
12h 27m
Waxing Gibbous, 90% of the Moon is Illuminated
Sep 16
Waxing Gibbous
Sep 19
Full
Sep 26
Last Quarter
Oct 4
New
Oct 11
First Quarter

Hourly Weather History & Observations

Time (CDT) Temp. Windchill Dew Point Humidity Pressure Visibility Wind Dir Wind Speed Gust Speed Precip Events Conditions
12:18 AM 50.0 °F - 41.0 °F 71% 30.31 in 10.0 mi ENE 8.1 mph - N/A   Partly Cloudy
12:54 AM 48.0 °F - 39.9 °F 74% 30.34 in 10.0 mi ENE 6.9 mph - N/A   Clear
1:54 AM 45.0 °F 41.8 °F 39.9 °F 82% 30.36 in 10.0 mi NE 5.8 mph - N/A   Clear
2:54 AM 43.0 °F - 39.0 °F 86% 30.37 in 10.0 mi Calm Calm - N/A   Clear
3:54 AM 39.0 °F - 37.9 °F 96% 30.37 in 10.0 mi Calm Calm - N/A   Clear
4:54 AM 37.9 °F - 37.0 °F 97% 30.39 in - Calm Calm - N/A   Clear
5:54 AM 37.0 °F - 35.1 °F 93% 30.42 in 10.0 mi Calm Calm - N/A   Clear
6:54 AM 37.9 °F - 37.0 °F 97% 30.43 in 10.0 mi Calm Calm - N/A   Clear
7:54 AM 45.0 °F 43.5 °F 41.0 °F 86% 30.44 in 10.0 mi NNE 3.5 mph - N/A   Clear
8:54 AM 48.9 °F - 39.9 °F 71% 30.45 in 10.0 mi NE 6.9 mph - N/A   Clear
9:54 AM 53.1 °F - 39.0 °F 59% 30.46 in 10.0 mi ENE 8.1 mph - N/A   Clear
10:54 AM 55.0 °F - 37.9 °F 53% 30.45 in 10.0 mi East 8.1 mph - N/A   Clear
11:54 AM 57.9 °F - 37.9 °F 47% 30.44 in 10.0 mi Variable 6.9 mph - N/A   Clear
12:54 PM 61.0 °F - 37.0 °F 41% 30.44 in 10.0 mi ESE 6.9 mph - N/A   Clear
1:54 PM 62.1 °F - 36.0 °F 38% 30.42 in 10.0 mi East 6.9 mph - N/A   Clear
2:54 PM 64.0 °F - 37.0 °F 37% 30.40 in 10.0 mi ENE 8.1 mph - N/A   Clear
3:54 PM 64.0 °F - 37.0 °F 37% 30.39 in 10.0 mi Calm Calm - N/A   Clear
4:54 PM 64.0 °F - 37.0 °F 37% 30.38 in 10.0 mi SE 4.6 mph - N/A   Clear
5:54 PM 63.0 °F - 35.1 °F 35% 30.37 in 10.0 mi SSE 6.9 mph - N/A   Clear
6:54 PM 57.9 °F - 37.0 °F 46% 30.36 in 10.0 mi ESE 4.6 mph - N/A   Clear
7:54 PM 51.1 °F - 39.9 °F 66% 30.35 in 10.0 mi East 4.6 mph - N/A   Clear
8:54 PM 51.1 °F - 41.0 °F 68% 30.37 in 10.0 mi Calm Calm - N/A   Clear
9:54 PM 46.9 °F - 42.1 °F 83% 30.38 in 10.0 mi ESE 3.5 mph - N/A   Clear
10:54 PM 46.9 °F - 41.0 °F 80% 30.38 in 10.0 mi ESE 5.8 mph - N/A   Clear
11:54 PM 46.9 °F - 42.1 °F 83% 30.38 in 10.0 mi ESE 5.8 mph - N/A   Clear